Fullerton, CA

6:00 AM PST on January 21, 2018 (GMT -0800)
Fullerton Municipal

Weather History for KFUL - May, 2009

Change the Weather History Date:

Monday, May 11, 2009

  Actual Average Record
Temperature  
Mean Temperature 69 °F 66 °F  
Max Temperature 77 °F 75 °F 87 °F (2013)
Min Temperature 60 °F 57 °F 49 °F (2010)
Degree Days  
Heating Degree Days 0 1  
Month to date heating degree days 1 16  
Since 1 July heating degree days 995 1210  
Cooling Degree Days 4 2  
Month to date cooling degree days 44 22  
Year to date cooling degree days 129 74  
Growing Degree Days 18 (Base 50)    
Moisture  
Dew Point 54 °F    
Average Humidity 67    
Maximum Humidity 84    
Minimum Humidity 49    
Precipitation  
Precipitation 0.00 in 0.02 in 0.47 in (1957)
Month to date precipitation T 0.17  
Year to date precipitation 5.38 9.48  
Since 1 July precipitation 10.01  
Snow  
Snow 0.00 in - - ()
Month to date snowfall 0.0  
Year to date snowfall 0.0  
Snow Depth 0.00 in    
Sea Level Pressure  
Sea Level Pressure 29.89 in    
Wind  
Wind Speed 4 mph (SW)    
Max Wind Speed 12 mph    
Max Gust Speed 16 mph    
Visibility 7 miles    
Events      
T = Trace of Precipitation, MM = Missing Value Source: NWS Daily Summary

Daily Weather History Graph

Daily Weather History Graph

Search for Another Location

Airport or City:

Trip Planner

Search our weather history database for the weather conditions in past years. The results will help you decide how hot, cold, wet, or windy it might be!

Date:

Astronomy

May. 11, 2009 Rise Set
Actual Time 5:53 AM PDT 7:43 PM PDT
Civil Twilight 5:26 AM PDT 8:10 PM PDT
Nautical Twilight 4:53 AM PDT 8:43 PM PDT
Astronomical Twilight 4:18 AM PDT 9:19 PM PDT
Moon 10:32 PM PDT (5/11) 7:24 AM PDT (5/11)
Length of Visible Light 14h 44m
Length of Day
13h 49m
Waning Gibbous, 93% of the Moon is Illuminated
May 11
Waning Gibbous
May 17
Last Quarter
May 24
New
May 30
First Quarter
Jun 7
Full

Hourly Weather History & Observations

Time (PDT) Temp. Dew Point Humidity Pressure Visibility Wind Dir Wind Speed Gust Speed Precip Events Conditions
12:53 AM 60.1 °F 54.0 °F 80% 29.88 in 5.0 mi Calm Calm - N/A   Haze
1:00 AM 60.8 °F 53.6 °F 77% 29.89 in 5.0 mi Calm Calm - N/A   Haze
1:53 AM 61.0 °F 55.0 °F 81% 29.88 in 5.0 mi Calm Calm - N/A   Haze
2:53 AM 61.0 °F 55.0 °F 81% 29.88 in 5.0 mi South 4.6 mph - N/A   Haze
3:53 AM 61.0 °F 55.0 °F 81% 29.88 in 5.0 mi Variable 3.5 mph - N/A   Haze
4:53 AM 61.0 °F 55.0 °F 81% 29.88 in 5.0 mi Calm Calm - N/A   Haze
5:53 AM 61.0 °F 55.0 °F 81% 29.88 in 5.0 mi SW 4.6 mph - N/A   Haze
6:53 AM 61.0 °F 54.0 °F 78% 29.90 in 6.0 mi South 4.6 mph - N/A   Haze
7:37 AM 62.6 °F 53.6 °F 72% 29.93 in 7.0 mi Variable 3.5 mph - N/A   Overcast
7:53 AM 62.1 °F 53.1 °F 72% 29.93 in 7.0 mi Calm Calm - N/A   Overcast
8:53 AM 64.0 °F 53.1 °F 67% 29.93 in 8.0 mi Calm Calm - N/A   Overcast
9:53 AM 66.0 °F 53.1 °F 63% 29.93 in 9.0 mi South 4.6 mph - N/A   Overcast
10:50 AM 69.8 °F 53.6 °F 56% 29.93 in 9.0 mi Calm Calm - N/A   Scattered Clouds
10:53 AM 68.0 °F 54.0 °F 61% 29.93 in 9.0 mi Variable 4.6 mph - N/A   Partly Cloudy
11:53 AM 72.0 °F 54.0 °F 53% 29.92 in 9.0 mi West 3.5 mph - N/A   Clear
12:53 PM 73.9 °F 54.0 °F 50% 29.90 in 9.0 mi Variable 4.6 mph - N/A   Clear
1:53 PM 75.9 °F 55.0 °F 48% 29.89 in 10.0 mi SSW 8.1 mph - N/A   Clear
2:53 PM 75.0 °F 55.0 °F 50% 29.87 in 10.0 mi SSW 8.1 mph - N/A   Clear
3:53 PM 73.9 °F 55.0 °F 52% 29.86 in 10.0 mi SSW 10.4 mph - N/A   Clear
4:53 PM 73.9 °F 55.0 °F 52% 29.85 in 9.0 mi SSW 8.1 mph - N/A   Clear
5:53 PM 72.0 °F 55.0 °F 55% 29.84 in 10.0 mi South 6.9 mph - N/A   Clear
6:53 PM 68.0 °F 55.0 °F 63% 29.85 in 7.0 mi West 6.9 mph - N/A   Clear
7:53 PM 64.9 °F 54.0 °F 68% 29.86 in 7.0 mi West 4.6 mph - N/A   Clear
8:53 PM 62.1 °F 54.0 °F 75% 29.87 in 8.0 mi West 3.5 mph - N/A   Clear
9:53 PM 61.0 °F 54.0 °F 78% 29.89 in 7.0 mi West 3.5 mph - N/A   Clear
10:53 PM 60.1 °F 54.0 °F 80% 29.90 in 6.0 mi Calm Calm - N/A   Haze
11:17 PM 60.8 °F 53.6 °F 77% 29.90 in 6.0 mi SSW 3.5 mph - N/A   Haze
11:53 PM 61.0 °F 55.0 °F 81% 29.90 in 6.0 mi South 4.6 mph - N/A   Haze